Regional Weather Roundup
Issued by NWS

Home | Current Version | Previous Version | Graphics & Text | Print | Product List | Glossary On
Versions: 1 2 3 4 5 6 7 8 9 10 11 12 13 14 15 16 17 18 19 20 21 22 23 24 25 26 27 28 29 30 31 32 33 34 35 36 37 38 39 40 41 42 43 44 45 46 47 48 49 50
904
ASUS43 KLSX 100957
RWRMO

WEATHER SUMMARY FOR MISSOURI
NATIONAL WEATHER SERVICE SPRINGFIELD MO
400 AM CST WED FEB 10 2016

NOTE: "FAIR" INDICATES FEW OR NO CLOUDS BELOW 12,000 FEET WITH NO
       SIGNIFICANT WEATHER AND/OR OBSTRUCTIONS TO VISIBILITY.
       CURRENT SKY AND/OR WEATHER CONDITIONS ARE NOT AVAILABLE FOR
       CHILLICOTHE AND FARMINGTON.

MOZ001>031-035>038-043-044-053-054-101100-
...NORTHERN AND WESTERN MISSOURI...

CITY           SKY/WX    TMP DP  RH WIND       PRES   REMARKS
KANSAS CTY INT CLOUDY    22  13  68 SW6       30.19F WCI  14
LEE`S SUMMIT   CLOUDY    22  11  62 SW6       30.20F WCI  14
ST JOSEPH      CLOUDY    22  14  71 S7        30.19F WCI  13
CHILLICOTHE      N/A     20  12  71 CALM      30.18F

$$
MOZ066>068-077>081-088>096-101>105-101100-
...SOUTHWEST MISSOURI...

CITY           SKY/WX    TMP DP  RH WIND       PRES   REMARKS
SPRINGFIELD    CLEAR     19   8  62 NW6       30.19S WCI  11
JOPLIN         CLEAR     18   9  68 SW3       30.26S

$$
MOZ032>034-039>042-045>050-055>058-069>072-101100-
...CENTRAL MISSOURI...

CITY           SKY/WX    TMP DP  RH WIND       PRES   REMARKS
COLUMBIA       NOT AVBL
JEFFERSON CITY CLEAR     18   8  65 NW7       30.21R WCI   9
ROLLA          CLEAR     15   7  70 NW8       30.14S WCI   4
SEDALIA        CLEAR     19  10  68 W6        30.21S WCI  11

$$
MOZ051-052-059>065-101100-
...EAST CENTRAL MISSOURI...

CITY           SKY/WX    TMP DP  RH WIND       PRES   REMARKS
ST LOUIS INTL  PTCLDY    17   6  62 NW13G18   30.16R WCI   4

$$
MOZ072>076-082>087-097>100-106>115-101100-
...SOUTH CENTRAL AND SOUTHEAST MISSOURI...

CITY           SKY/WX    TMP DP  RH WIND       PRES   REMARKS
CAPE GIRARDEAU CLEAR     18   6  59 NW9       30.17S WCI   7
POPLAR BLUFF   CLEAR     21   3  45 NW15G21   30.19R WCI   8
WEST PLAINS    CLEAR     18   5  57 NW6       30.16F WCI  10

$$



USA.gov is the U.S. government's official web portal to all federal, state and local government web resources and services.